マクノート彗星

320P/McNaught (2015)

English version
Home page
Updated on June 11, 2016

---------------------------------------------------------------------

・ プロフィール

符号 320P/2015 HC10
検出日 2015年4月18日
検出光度 22.4等
検出者 L. Allen and D. James (Cerro Tololo)

・ 写真集

・ 軌道要素

Epoch 2015 Aug. 6.0 TT = JDT 2457240.5
T 2015 Aug. 7.31049 TT                                  MPCW
q   0.9770095            (2000.0)            P               Q
n   0.18082521     Peri.    0.74273     +0.44915382     +0.89014742
a   3.0971582      Node   295.94941     -0.82016821     +0.37669043
e   0.6845465      Incl.    4.89974     -0.35437968     +0.25640181
P   5.45
From 102 observations 2004 Sept. 2-2015 Oct. 10, mean residual 0".5.

・ 星図

・ 光度変化

        m1 = 22.5 + 5 logΔ +  0   log r  [  , 0]  (              〜2015年 8月 7日)
        m1 = 22.5 + 5 logΔ - 10   log r  [ 0,80]  (2015年 8月 7日〜2015年10月26日)
        m1 = 18.5 + 5 logΔ + 15.0 log r  [80,  ]  (2015年10月26日〜              )

        ※ 灰色の曲線は、m1 = 18.5 + 5 logΔ + 15.0 log r の光度曲線です。

---------------------------------------------------------------------

軌道要素はM.P.E.C. 2015-U54に掲載されたものです。
星図はステラナビゲータ Ver.8 (アストロアーツ) で作成したものです。
光度グラフはComet for Windowsで作成したものです。

---------------------------------------------------------------------

Copyright(C) Seiichi Yoshida (comet@aerith.net). All rights reserved.